Wetbulb
47.28 47.75 47.93 48.30 49.10 48.85 48.69 48.98 48.54 48.77 49.63 50.58 52.42 54.79 55.84 56.00 56.15 55.99 55.70 54.68 55.34 54.99
45.32 45.71 45.10 45.16 46.37 46.62 45.89 47.68 46.48 46.87 47.38 47.75 48.72 49.98 52.22 54.28 53.92 53.62 54.22 54.04 54.96 55.14
42.46 42.24 41.91 41.71 41.14 41.81 41.60 42.33 42.89 43.39 44.11 44.32 44.74 45.99 47.54 47.58 47.95 49.00 49.85 48.33 49.79 48.52
40.38 40.42 40.10 39.66 39.59 39.73 39.77 39.76 40.06 40.41 40.39 40.85 41.10 41.67 42.30 42.50 42.93 43.35 42.14 41.94 42.45 41.94
39.09 39.02 38.50 38.19 38.49 38.85 38.21 38.44 38.51 38.94 39.04 39.13 39.28 39.40 39.42 39.50 39.55 39.57 39.19 39.51 41.35 40.13
37.64 37.31 37.13 37.29 37.99 38.12 37.66 37.49 37.87 38.13 38.11 38.06 38.58 38.75 39.45 39.05 38.78 38.67 39.30 39.39 39.23 39.02
36.52 36.63 38.20 38.51 37.41 37.63 37.48 37.26 37.32 37.88 38.10 38.32 38.09 37.59 37.67 37.31 37.09 37.26 37.52 37.89 37.30 37.66
37.34 39.53 39.39 39.01 38.93 38.80 38.88 39.01 37.24 37.69 38.70 38.97 38.50 38.12 35.17 35.93 35.52 35.88 35.71 35.96 36.79 38.55
38.23 38.45 37.95 37.79 37.57 37.41 37.32 37.66 38.22 38.63 38.87 38.69 39.22 39.63 38.75 36.83 35.19 35.09 34.48 33.73 33.97 35.70
37.92 37.24 37.17 37.05 36.50 35.84 35.98 36.52 36.41 37.04 37.96 37.91 38.75 39.03 37.90 36.60 33.04 32.33 31.78 30.70 31.59 30.30
36.85 36.49 36.57 36.01 35.38 35.08 34.98 34.31 33.83 34.81 35.64 35.88 37.32 38.11 36.86 34.43 28.23 23.57 21.06 21.68 21.77 22.59
36.46 35.95 35.55 34.55 34.04 34.17 33.67 32.97 32.13 30.80 27.06 23.85 26.87 35.44 34.21 27.45 20.73 21.35 22.00 24.62 25.47 25.75
36.71 35.88 34.36 33.77 33.12 33.18 32.29 28.15 25.10 23.40 19.77 32.12 23.01 35.18 33.54 27.93 25.13 22.16 24.52 22.87 23.95 31.00
36.25 35.05 34.23 33.42 32.69 30.69 26.35 25.91 25.76 27.19 23.35 25.35 28.00 27.82 34.06 32.80 26.08 24.43 24.45 24.50 23.95 25.90
MSLP
1018.02 1018.01 1018.07 1018.00 1017.97 1018.05 1017.98 1017.95 1017.73 1017.47 1017.11 1016.80 1016.36 1015.96 1015.75 1015.83 1015.88 1016.00 1016.17 1016.31 1016.54 1016.98
1018.52 1018.51 1018.61 1018.54 1018.48 1018.46 1018.42 1018.24 1017.82 1017.54 1017.37 1017.13 1016.92 1016.62 1016.29 1016.15 1016.15 1016.26 1016.47 1016.69 1016.27 1016.86
1019.07 1019.07 1019.04 1018.99 1018.98 1018.93 1018.78 1018.53 1018.29 1018.04 1017.81 1017.60 1017.37 1017.11 1016.89 1016.83 1016.85 1016.84 1017.13 1017.19 1017.07 1017.39
1019.48 1019.47 1019.41 1019.42 1019.37 1019.28 1019.12 1018.92 1018.67 1018.49 1018.38 1018.22 1018.02 1017.74 1017.47 1017.45 1017.43 1017.46 1017.61 1017.56 1017.60 1017.97
1019.79 1019.79 1019.82 1019.83 1019.75 1019.62 1019.46 1019.25 1019.01 1018.84 1018.73 1018.66 1018.55 1018.31 1018.08 1018.06 1018.13 1018.04 1018.02 1017.99 1017.93 1018.41
1020.17 1020.21 1020.23 1020.21 1020.10 1019.88 1019.68 1019.56 1019.42 1019.17 1019.01 1018.89 1018.79 1018.76 1018.73 1018.71 1018.65 1018.53 1018.48 1018.63 1018.65 1018.90
1020.31 1020.38 1020.32 1020.34 1020.33 1020.23 1020.00 1019.84 1019.73 1019.60 1019.42 1019.35 1019.36 1019.46 1019.33 1019.29 1019.33 1019.33 1019.38 1019.39 1019.43 1019.51
1020.14 1020.30 1020.26 1020.37 1020.42 1020.43 1020.29 1020.19 1020.20 1020.08 1020.01 1019.91 1019.92 1019.86 1019.95 1019.98 1020.07 1020.11 1020.12 1020.11 1020.06 1020.13
1020.08 1020.31 1020.41 1020.51 1020.68 1020.65 1020.67 1020.63 1020.62 1020.67 1020.55 1020.37 1020.38 1020.44 1020.43 1020.58 1020.68 1020.82 1020.73 1020.82 1020.89 1020.92
1020.15 1020.41 1020.57 1020.72 1020.99 1021.11 1021.19 1021.19 1021.19 1021.11 1021.03 1020.92 1020.97 1021.09 1021.03 1021.17 1021.44 1021.41 1021.55 1021.52 1021.64 1021.59
1020.31 1020.51 1020.86 1021.16 1021.41 1021.62 1021.80 1021.73 1021.77 1021.82 1021.73 1021.63 1021.49 1021.33 1021.53 1021.64 1021.84 1021.97 1022.07 1022.02 1022.06 1022.03
1020.49 1020.84 1021.23 1021.58 1021.87 1022.00 1021.99 1022.16 1022.47 1022.63 1022.47 1022.23 1021.95 1021.59 1021.83 1022.07 1022.26 1022.47 1022.42 1022.32 1022.16 1022.07
1020.85 1021.05 1021.43 1021.89 1022.14 1022.28 1022.44 1022.84 1022.89 1023.02 1022.92 1022.57 1022.14 1021.77 1022.01 1022.36 1022.52 1022.66 1022.49 1022.38 1022.25 1022.00
1020.97 1021.14 1021.50 1022.26 1022.56 1022.62 1022.79 1023.04 1023.11 1023.49 1023.22 1022.88 1022.61 1022.19 1021.94 1022.17 1022.43 1022.52 1022.53 1022.54 1022.49 1022.26
Wind_Speed
5 3 3 3 3 3 3 3 4 5 5 6 6 5 4 1 3 4 3 6 5 3
6 6 5 6 4 3 4 4 5 6 5 6 6 6 6 4 4 3 3 2 4 0
5 5 5 5 5 5 4 5 5 6 6 6 6 6 6 5 5 5 4 3 6 5
5 5 5 5 5 5 4 5 5 5 5 6 6 6 6 6 6 6 5 5 6 5
4 5 5 5 4 4 5 5 5 5 5 5 5 6 6 6 5 6 5 5 7 6
4 5 5 5 5 5 5 5 5 5 6 6 6 6 6 5 5 6 8 7 6 5
4 4 3 4 5 5 5 6 6 6 6 7 7 7 8 8 8 8 8 8 7 6
3 3 4 4 5 5 5 6 6 6 8 8 8 6 6 9 9 8 8 8 8 9
4 4 4 5 5 6 6 6 7 6 6 7 7 14 15 10 7 6 7 7 7 7
4 4 5 6 5 6 5 5 5 6 7 7 7 13 14 13 6 7 6 6 5 4
5 5 5 6 5 5 4 4 4 5 6 6 6 12 12 12 6 5 4 4 3 3
4 5 5 5 4 3 4 5 4 4 5 4 5 11 10 8 4 3 4 4 3 3
5 5 5 5 4 2 4 3 3 3 3 6 4 8 7 5 2 3 3 3 4 7
5 6 6 4 2 3 4 3 3 2 2 3 3 4 5 5 2 1 1 2 2 3
Wind_Direction
36 46 47 40 44 36 23 6 352 352 357 355 358 354 346 259 235 218 227 203 193 192
41 49 50 43 46 45 18 360 4 5 8 13 14 5 356 14 31 40 35 5 69 296
54 48 45 44 36 30 20 15 13 12 16 14 16 13 31 33 18 51 40 31 57 46
48 43 44 43 28 19 23 17 22 18 22 23 21 15 37 42 34 63 61 43 67 63
53 46 46 37 24 18 31 26 34 33 38 30 26 25 39 47 41 57 58 51 59 50
60 56 50 37 26 28 32 32 32 43 42 34 27 33 41 48 50 54 49 43 50 38
86 88 85 71 51 42 38 45 38 37 38 40 43 40 44 51 51 55 53 48 44 38
116 88 75 64 61 60 51 51 47 51 58 58 55 58 56 64 69 64 60 50 40 39
109 93 85 72 64 66 56 51 53 50 58 56 63 65 73 68 65 58 54 48 38 32
108 102 88 82 76 69 63 59 51 47 51 54 69 74 74 75 62 63 55 51 44 36
109 98 91 90 79 70 70 60 48 44 43 53 60 71 75 80 69 63 48 56 52 49
119 122 115 107 102 90 78 63 54 43 43 48 17 72 77 77 60 59 49 50 33 64
137 134 122 121 113 81 70 77 63 34 17 52 27 69 72 78 73 62 41 23 19 9
150 134 121 116 127 121 100 80 76 82 353 34 26 355 63 85 78 78 52 34 4 351